Awendaw, SC

6:46 PM EDT on September 26, 2016 (GMT -0400)
Mount Pleasant

Weather History for KLRO - November, 2013

Change the Weather History Date:

Wednesday, November 6, 2013

  Actual Average (KCHS) Record (KCHS)
Temperature  
Mean Temperature 66 °F 61 °F  
Max Temperature 78 °F 72 °F 87 °F (2003)
Min Temperature 55 °F 50 °F 28 °F (1976)
Degree Days  
Heating Degree Days 0 5  
Month to date heating degree days 29  
Since 1 July heating degree days 98  
Cooling Degree Days 2 1  
Month to date cooling degree days 11  
Year to date cooling degree days 2275  
Growing Degree Days 16 (Base 50)    
Moisture  
Dew Point 64 °F    
Average Humidity 98    
Maximum Humidity 100    
Minimum Humidity 83    
Precipitation  
Precipitation 0.00 in 0.09 in 1.06 in (1993)
Month to date precipitation 0.50  
Year to date precipitation 45.99  
Sea Level Pressure  
Sea Level Pressure 30.21 in    
Wind  
Wind Speed 4 mph (NNE)    
Max Wind Speed 8 mph    
Max Gust Speed -    
Visibility 9 miles    
Events Rain    
T = Trace of Precipitation, MM = Missing Value Source: NWS Daily Summary

Daily Weather History Graph

Daily Weather History Graph

Search for Another Location

Airport or City:

Trip Planner

Search our weather history database for the weather conditions in past years. The results will help you decide how hot, cold, wet, or windy it might be!

Date:

Astronomy

Nov. 06, 2013 Rise Set
Actual Time 6:41 AM EST 5:23 PM EST
Civil Twilight 6:15 AM EST 5:49 PM EST
Nautical Twilight 5:46 AM EST 6:18 PM EST
Astronomical Twilight 5:17 AM EST 6:47 PM EST
Moon 9:50 AM EST (11/6) 8:30 PM EST (11/6)
Length of Visible Light 11h 33m
Length of Day
10h 41m
Waxing Crescent, 13% of the Moon is Illuminated
Nov 6
Waxing Crescent
Nov 10
First Quarter
Nov 17
Full
Nov 25
Last Quarter
Dec 2
New

Hourly Weather History & Observations

Time (EST) Temp. Dew Point Humidity Pressure Visibility Wind Dir Wind Speed Gust Speed Precip Events Conditions
12:15 AM 57.2 °F 57.2 °F 100% 30.32 in 10.0 mi NNE 4.6 mph - N/A Rain Light Rain
12:35 AM 55.4 °F 55.4 °F 100% 30.32 in 10.0 mi NNE 5.8 mph - N/A Rain Light Rain
12:55 AM 55.4 °F 55.4 °F 100% 30.31 in 10.0 mi NNE 4.6 mph - N/A Rain Light Rain
1:35 AM 55.4 °F 55.4 °F 100% 30.30 in 8.0 mi NNE 4.6 mph - N/A Rain Light Rain
1:55 AM 55.4 °F 55.4 °F 100% 30.29 in 8.0 mi North 4.6 mph - N/A Rain Light Rain
2:15 AM 55.4 °F 55.4 °F 100% 30.29 in 8.0 mi North 5.8 mph - N/A Rain Light Rain
2:35 AM 55.4 °F 55.4 °F 100% 30.28 in 8.0 mi North 5.8 mph - N/A Rain Light Rain
2:55 AM 55.4 °F 55.4 °F 100% 30.28 in 8.0 mi North 3.5 mph - N/A Rain Light Rain
3:15 AM 55.4 °F 55.4 °F 100% 30.27 in 8.0 mi North 4.6 mph - N/A Rain Light Rain
3:35 AM 55.4 °F 55.4 °F 100% 30.26 in 8.0 mi North 5.8 mph - N/A Rain Light Rain
3:55 AM 55.4 °F 55.4 °F 100% 30.26 in 10.0 mi NNE 4.6 mph - N/A Rain Light Rain
4:15 AM 55.4 °F 55.4 °F 100% 30.27 in 10.0 mi NNE 3.5 mph - N/A Rain Light Rain
4:35 AM 57.2 °F 57.2 °F 100% 30.27 in 10.0 mi NNE 4.6 mph - N/A Rain Light Rain
4:55 AM 57.2 °F 57.2 °F 100% 30.26 in 10.0 mi North 3.5 mph - N/A Rain Light Rain
5:15 AM 57.2 °F 57.2 °F 100% 30.26 in 10.0 mi North 4.6 mph - N/A Rain Light Rain
5:35 AM 57.2 °F 57.2 °F 100% 30.26 in 9.0 mi NNE 3.5 mph - N/A Rain Light Rain
5:55 AM 57.2 °F 57.2 °F 100% 30.26 in 8.0 mi NNE 3.5 mph - N/A Rain Light Rain
6:15 AM 57.2 °F 57.2 °F 100% 30.27 in 9.0 mi North 4.6 mph - N/A Rain Light Rain
6:35 AM 57.2 °F 57.2 °F 100% 30.26 in 10.0 mi North 5.8 mph - N/A Rain Light Rain
6:55 AM 57.2 °F 57.2 °F 100% 30.27 in 8.0 mi NNE 3.5 mph - N/A Rain Light Rain
7:15 AM 57.2 °F 57.2 °F 100% 30.27 in 10.0 mi North 4.6 mph - N/A Rain Light Rain
7:35 AM 57.2 °F 57.2 °F 100% 30.27 in 10.0 mi NE 4.6 mph - N/A Rain Light Rain
7:55 AM 59.0 °F 59.0 °F 100% 30.27 in 10.0 mi NNE 5.8 mph - N/A Rain Light Rain
8:15 AM 60.8 °F 60.8 °F 100% 30.27 in 10.0 mi NNE 3.5 mph - N/A   Scattered Clouds
8:35 AM 62.6 °F 62.6 °F 100% 30.27 in 10.0 mi NNE 4.6 mph - N/A   Light Drizzle
8:55 AM 62.6 °F 62.6 °F 100% 30.27 in 10.0 mi NNE 3.5 mph - N/A   Scattered Clouds
9:15 AM 64.4 °F 64.4 °F 100% 30.27 in 10.0 mi North 3.5 mph - N/A   Scattered Clouds
9:35 AM 64.4 °F 64.4 °F 100% 30.27 in 10.0 mi NNE 4.6 mph - N/A   Partly Cloudy
9:55 AM 66.2 °F 66.2 °F 100% 30.27 in 10.0 mi NE 4.6 mph - N/A   Partly Cloudy
10:15 AM 68.0 °F 68.0 °F 100% 30.27 in 10.0 mi North 4.6 mph - N/A   Partly Cloudy
10:35 AM 69.8 °F 68.0 °F 94% 30.27 in 10.0 mi NNE 3.5 mph - N/A   Scattered Clouds
10:55 AM 71.6 °F 69.8 °F 94% 30.26 in 10.0 mi ENE 3.5 mph - N/A   Partly Cloudy
11:15 AM 71.6 °F 69.8 °F 94% 30.25 in 10.0 mi ENE 5.8 mph - N/A   Partly Cloudy
11:55 AM 73.4 °F 71.6 °F 94% 30.24 in 10.0 mi Calm Calm - N/A   Clear
12:15 PM 73.4 °F 71.6 °F 94% 30.23 in 10.0 mi Calm Calm - N/A   Partly Cloudy
12:35 PM 73.4 °F 69.8 °F 88% 30.22 in 10.0 mi Calm Calm - N/A   Partly Cloudy
12:55 PM 71.6 °F 69.8 °F 94% 30.21 in 10.0 mi NE 3.5 mph - N/A   Partly Cloudy
1:15 PM 73.4 °F 69.8 °F 88% 30.20 in 10.0 mi Calm Calm - N/A   Partly Cloudy
1:35 PM 73.4 °F 69.8 °F 88% 30.19 in 10.0 mi Calm Calm - N/A   Partly Cloudy
1:55 PM 73.4 °F 71.6 °F 94% 30.19 in 10.0 mi Calm Calm - N/A   Partly Cloudy
2:15 PM 75.2 °F 71.6 °F 89% 30.18 in 10.0 mi ENE 5.8 mph - N/A   Partly Cloudy
2:35 PM 75.2 °F 71.6 °F 89% 30.17 in 10.0 mi NNE 4.6 mph - N/A   Clear
2:55 PM 78.8 °F 73.4 °F 83% 30.17 in 10.0 mi NE 3.5 mph - N/A   Partly Cloudy
3:15 PM 75.2 °F 73.4 °F 94% 30.17 in 10.0 mi East 8.1 mph - N/A   Partly Cloudy
3:35 PM 73.4 °F 71.6 °F 94% 30.17 in 10.0 mi Calm Calm - N/A   Partly Cloudy
3:55 PM 73.4 °F 71.6 °F 94% 30.16 in 10.0 mi Calm Calm - N/A   Partly Cloudy
4:15 PM 71.6 °F 71.6 °F 100% 30.16 in 10.0 mi Calm Calm - N/A   Mostly Cloudy
4:35 PM 71.6 °F 71.6 °F 100% 30.16 in 10.0 mi East 3.5 mph - N/A   Scattered Clouds
4:55 PM 71.6 °F 71.6 °F 100% 30.16 in 10.0 mi ENE 4.6 mph - N/A   Scattered Clouds
5:15 PM 69.8 °F 69.8 °F 100% 30.16 in 10.0 mi Calm Calm - N/A   Scattered Clouds
5:35 PM 69.8 °F 69.8 °F 100% 30.16 in 10.0 mi Calm Calm - N/A   Mostly Cloudy
5:55 PM 68.0 °F 68.0 °F 100% 30.16 in 10.0 mi Calm Calm - N/A   Mostly Cloudy
6:15 PM 68.0 °F 68.0 °F 100% 30.16 in 10.0 mi Calm Calm - N/A   Mostly Cloudy
6:35 PM 68.0 °F 68.0 °F 100% 30.16 in 10.0 mi Calm Calm - N/A   Mostly Cloudy
6:55 PM 66.2 °F 66.2 °F 100% 30.16 in 10.0 mi Calm Calm - N/A   Scattered Clouds
7:15 PM 66.2 °F 66.2 °F 100% 30.16 in 9.0 mi Calm Calm - N/A Rain Light Rain
7:35 PM 66.2 °F 66.2 °F 100% 30.15 in 7.0 mi Calm Calm - N/A   Overcast
7:55 PM 66.2 °F 66.2 °F 100% 30.15 in 10.0 mi Calm Calm - N/A   Mostly Cloudy
8:15 PM 66.2 °F 66.2 °F 100% 30.15 in 5.0 mi NE 4.6 mph - N/A   Overcast
8:35 PM 66.2 °F 66.2 °F 100% 30.15 in 3.0 mi Calm Calm - N/A   Light Drizzle
8:55 PM 66.2 °F 66.2 °F 100% 30.15 in 4.0 mi Calm Calm - N/A   Overcast
9:15 PM 66.2 °F 66.2 °F 100% 30.14 in 4.0 mi Calm Calm - N/A   Drizzle
9:35 PM 66.2 °F 66.2 °F 100% 30.13 in 2.0 mi Calm Calm - N/A   Drizzle
9:55 PM 66.2 °F 66.2 °F 100% 30.13 in 3.0 mi ENE 3.5 mph - N/A Rain Light Rain
10:15 PM 66.2 °F 66.2 °F 100% 30.12 in 8.0 mi Calm Calm - N/A   Overcast
10:35 PM 64.4 °F 64.4 °F 100% 30.12 in 3.0 mi NNE 4.6 mph - N/A Rain Light Rain
10:55 PM 64.4 °F 64.4 °F 100% 30.11 in 4.0 mi NE 3.5 mph - N/A Rain Light Rain
11:15 PM 64.4 °F 64.4 °F 100% 30.10 in 8.0 mi Calm Calm - N/A Rain Light Rain
11:35 PM 64.4 °F 64.4 °F 100% 30.10 in 3.0 mi Calm Calm - N/A   Mostly Cloudy
11:55 PM 64.4 °F 64.4 °F 100% 30.10 in 2.0 mi Calm Calm - N/A   Overcast